[[{"header":{"parameterUnit":"m.s-1","parameterCategory":2,"la1":30.2991,"la2":30.254,"lo1":-89.0895,"lo2":-89.0444,"dy":0.0017,"dx":0.0017,"nx":28,"ny":28,"refTime":"2024-04-27T09:00:00:Z","depth":"0","parameterNumber":2,"parameterNumberName":"U-component_of_CURRENTS"},"data":[0,0,0,0,0,0,0,0,0,0,0,0,0,0,0,0,0,0,0,0,0,0,0,0,0,0,0,0,0,0,0,0,0,0,0,0,0,0,0,0,0,0,0,0,0,0,0,0,0,0,0,0,0,0,0,0,0,0,-0.3166,-0.3167,0,-0.3228,-0.3228,-0.3228,-0.3191,-0.319,-0.3188,-0.3187,-0.3088,-0.3086,-0.3085,0,0,0,0,0,0,0,0,0,0,0,0,0,-0.2992,-0.2995,-0.3166,-0.3167,-0.3169,-0.3228,-0.3228,-0.3229,-0.3191,-0.319,-0.3188,-0.3187,-0.3088,-0.3086,-0.3085,0,0,0,0,0,0,0,0,0,0,0,0,0,-0.3057,-0.2996,-0.3166,-0.3161,-0.3162,-0.3228,-0.3228,-0.3229,-0.3192,-0.319,-0.3188,-0.3186,-0.3089,-0.3087,-0.3084,-0.3109,0,0,-0.3078,-0.3077,0,0,0,0,0,0,0,0,-0.3053,-0.3063,-0.3161,-0.3162,-0.3163,-0.3205,-0.3131,-0.3183,-0.3192,-0.3174,-0.3187,-0.3185,-0.3117,-0.3112,-0.3123,-0.3104,-0.31,-0.3078,-0.3076,-0.3075,-0.3075,0,0,0,0,0,0,0,-0.3049,-0.306,-0.3185,-0.3162,-0.3164,-0.3149,-0.3155,-0.3141,-0.3148,-0.3176,-0.3174,-0.3191,-0.3115,-0.3125,-0.3119,-0.3099,-0.3078,-0.3076,-0.3074,-0.3073,-0.3129,-0.3131,0,0,0,0,0,0,-0.3057,-0.3056,-0.3183,-0.3187,-0.3109,-0.3154,-0.3161,-0.3188,-0.3152,-0.3147,-0.3193,-0.3189,-0.313,-0.3122,-0.3116,-0.3148,-0.3075,-0.3073,-0.3072,-0.3126,-0.3129,-0.3132,0,0,0,0,0,0,-0.3053,-0.3068,-0.318,-0.3126,-0.314,-0.316,-0.319,-0.3191,-0.3198,-0.3168,-0.3158,-0.3199,-0.3128,-0.3119,-0.3129,-0.3143,-0.3072,-0.307,-0.3123,-0.3127,-0.3131,-0.3209,0,0,0,0,0,0,-0.3048,-0.3067,-0.3081,-0.3128,-0.3144,-0.3228,-0.3193,-0.3194,-0.3214,-0.321,-0.3171,-0.316,-0.3126,-0.3133,-0.3126,-0.3139,-0.3069,-0.3119,-0.3124,-0.3129,-0.3203,-0.3215,-0.3226,0,0,0,0,0,-0.3042,-0.3077,-0.3082,-0.3097,-0.3167,-0.323,-0.3237,-0.3238,-0.3217,-0.3234,-0.3219,-0.3161,-0.3161,-0.3134,-0.3126,-0.3137,-0.3116,-0.3123,-0.3129,-0.3197,-0.3213,-0.3225,0,0,0,0,0,0,-0.3004,-0.3079,-0.3084,-0.3138,-0.3183,-0.3225,-0.3244,-0.3247,-0.3252,-0.324,-0.3197,-0.3188,-0.3199,-0.3175,-0.3146,-0.3176,-0.3129,-0.3134,-0.3184,-0.3197,-0.3209,-0.3199,-0.3067,0,0,0,0,0,-0.3008,-0.3053,-0.3117,-0.3157,-0.3183,-0.3213,-0.3235,-0.3245,-0.3263,-0.3263,-0.324,-0.3224,-0.3223,-0.3214,-0.3206,-0.3224,-0.319,-0.3231,-0.3242,-0.3252,-0.3244,-0.322,-0.3227,-0.3153,-0.3153,-0.3153,0,0,-0.3002,-0.3051,-0.3074,-0.3152,-0.3182,-0.324,-0.322,-0.3267,-0.3304,-0.325,-0.3276,-0.3259,-0.324,-0.3261,-0.3264,-0.3238,-0.3264,-0.326,-0.3268,-0.3254,-0.3227,-0.3233,-0.3239,-0.3157,-0.3156,-0.3156,0,0,-0.303,-0.3062,-0.3114,-0.3163,-0.3229,-0.3256,-0.3273,-0.3323,-0.3329,-0.3368,-0.3339,-0.334,-0.3337,-0.3329,-0.3324,-0.3399,-0.3326,-0.3397,-0.344,-0.3417,-0.3422,-0.3425,-0.3417,-0.3419,-0.3402,-0.3402,-0.3402,0,-0.3014,-0.3097,-0.3136,-0.3204,-0.3245,-0.3267,-0.3329,-0.3356,-0.3397,-0.3403,-0.3383,-0.339,-0.3368,-0.3393,-0.3422,-0.3418,-0.3398,-0.3382,-0.3428,-0.343,-0.3432,-0.3423,-0.3424,-0.3406,-0.3406,-0.3406,-0.3405,0,-0.3092,-0.3154,-0.319,-0.3283,-0.3329,-0.3387,-0.3439,-0.3467,-0.3469,-0.3483,-0.3501,-0.3486,-0.3481,-0.3487,-0.3473,-0.3491,-0.3471,-0.3441,-0.3381,-0.3444,-0.3431,-0.3431,-0.3413,-0.3411,-0.341,-0.3409,0,0,-0.306,-0.3214,-0.3225,-0.3273,-0.3374,-0.3416,-0.3484,-0.3542,-0.3563,-0.3581,-0.3596,-0.361,-0.3579,-0.3574,-0.3555,-0.3543,-0.3552,-0.3503,-0.35,-0.3476,-0.3511,-0.3471,-0.3466,-0.3522,-0.3522,-0.3522,-0.3504,0,-0.3102,-0.3232,-0.3302,-0.3401,-0.3464,-0.3514,-0.357,-0.3616,-0.3634,-0.3651,-0.3636,-0.3639,-0.3621,-0.3609,-0.36,-0.3558,-0.3551,-0.356,-0.347,-0.3468,-0.3407,-0.3464,-0.3376,-0.335,-0.3503,-0.3503,-0.3503,0,-0.3145,-0.3231,-0.334,-0.3454,-0.3484,-0.3535,-0.3601,-0.3658,-0.3695,-0.3703,-0.3707,-0.3689,-0.3689,-0.3649,-0.3614,-0.3618,-0.3573,-0.3539,-0.3537,-0.3463,-0.3426,-0.331,-0.3342,-0.3346,-0.3502,-0.3502,-0.3502,0,-0.3087,-0.3243,-0.3321,-0.3367,-0.3505,-0.3536,-0.3591,-0.3652,-0.3689,-0.3718,-0.3731,-0.3728,-0.3713,-0.3667,-0.3612,-0.3608,-0.3554,-0.3534,-0.3462,-0.3459,-0.3347,-0.3334,-0.3348,-0.3497,-0.3497,-0.3497,-0.3497,0,-0.31,-0.3157,-0.3293,-0.3337,-0.3397,-0.3501,-0.3547,-0.3601,-0.367,-0.3696,-0.3735,-0.374,-0.3712,-0.3683,-0.3625,-0.3546,-0.3563,-0.3474,-0.3449,-0.3378,-0.3369,-0.3334,-0.3336,-0.3496,-0.3496,-0.3497,-0.3497,0,-0.3024,-0.3128,-0.3205,-0.334,-0.337,-0.34,-0.3511,-0.3549,-0.3633,-0.3667,-0.3677,-0.3742,-0.3711,-0.3682,-0.3606,-0.3559,-0.3436,-0.3446,-0.3376,-0.3344,-0.3282,-0.3292,-0.3232,-0.314,-0.3374,-0.3372,-0.3371,0,-0.3002,-0.3037,-0.3156,-0.3183,-0.3238,-0.3305,-0.3352,-0.3485,-0.3528,-0.365,-0.3652,-0.3681,-0.3661,-0.3582,-0.3499,-0.341,-0.3377,-0.3285,-0.3259,-0.3274,-0.3267,-0.3265,-0.3191,-0.3156,-0.3154,-0.3152,-0.315,0,-0.2928,-0.2955,-0.3011,-0.307,-0.312,-0.3181,-0.3258,-0.3301,-0.3448,-0.3502,-0.3559,-0.3566,-0.3544,-0.3448,-0.3367,-0.3275,-0.3228,-0.3238,-0.3257,-0.3106,-0.3096,-0.2996,-0.3196,-0.3131,-0.3133,-0.3134,-0.3135,-0.3136,-0.2821,-0.2825,-0.2882,-0.292,-0.2979,-0.3018,-0.3001,-0.3113,-0.3169,-0.3208,-0.3361,-0.3338,-0.3392,-0.3274,-0.321,-0.3098,-0.3083,-0.3018,-0.3033,-0.3035,-0.293,-0.3103,-0.3007,-0.3008,-0.3009,-0.301,-0.301,0,-0.2685,-0.27,-0.2732,-0.2762,-0.2751,-0.2839,-0.2896,-0.2838,-0.2831,-0.2958,-0.2986,-0.3091,-0.3064,-0.3099,-0.3063,-0.2951,-0.2856,-0.2865,-0.2845,-0.2777,-0.2931,-0.2906,-0.2777,-0.2777,-0.2777,-0.2777,-0.2777,-0.2777,-0.2607,-0.2584,-0.2605,-0.2518,-0.2523,-0.2431,-0.2416,-0.2358,-0.2383,-0.2383,-0.2474,-0.2592,-0.2754,-0.3114,-0.3051,-0.2909,-0.2815,-0.273,-0.272,-0.2865,-0.2881,-0.2897,-0.2877,-0.2744,-0.2744,-0.2495,-0.2493,-0.2492]},{"header":{"parameterUnit":"m.s-1","parameterCategory":2,"la1":30.2991,"la2":30.254,"lo1":-89.0895,"lo2":-89.0444,"dy":0.0017,"dx":0.0017,"nx":28,"ny":28,"refTime":"2024-04-27T09:00:00:Z","depth":"0","parameterNumber":3,"parameterNumberName":"V-component_of_CURRENTS"},"data":[0,0,0,0,0,0,0,0,0,0,0,0,0,0,0,0,0,0,0,0,0,0,0,0,0,0,0,0,0,0,0,0,0,0,0,0,0,0,0,0,0,0,0,0,0,0,0,0,0,0,0,0,0,0,0,0,0,0,-0.0093,-0.0092,0,0.0073,0.0075,0.0076,0.0169,0.0169,0.017,0.017,0.0331,0.0335,0.0339,0,0,0,0,0,0,0,0,0,0,0,0,0,-0.0223,-0.0221,-0.0093,-0.0091,-0.0089,0.0072,0.0075,0.0077,0.0169,0.0169,0.017,0.017,0.0329,0.0334,0.0339,0,0,0,0,0,0,0,0,0,0,0,0,0,-0.0122,-0.0221,-0.0094,-0.0025,-0.0017,0.0072,0.0075,0.0078,0.0169,0.0169,0.017,0.017,0.0328,0.0334,0.034,0.0373,0,0,0.0359,0.0362,0,0,0,0,0,0,0,0,-0.0128,-0.0117,-0.0037,-0.003,-0.0021,0.0099,0.0088,0.0176,0.0169,0.01,0.017,0.017,0.0252,0.0264,0.0297,0.0381,0.0388,0.0359,0.0363,0.0366,0.0368,0,0,0,0,0,0,0,-0.0135,-0.0123,-0.0026,-0.0035,-0.0025,0.0034,0.0048,0.0106,0.0173,0.0106,0.0113,0.0129,0.0257,0.0291,0.0301,0.039,0.0359,0.0365,0.0369,0.0371,0.0558,0.0559,0,0,0,0,0,0,-0.0164,-0.013,-0.0032,-0.0022,-0.0076,0.0036,0.0052,0.0062,0.0173,0.019,0.0129,0.0133,0.028,0.0294,0.0307,0.037,0.0366,0.0372,0.0375,0.0557,0.0558,0.056,0,0,0,0,0,0,-0.0167,-0.0157,-0.0038,-0.0073,-0.0054,0.0037,0.0048,0.0065,0.0098,0.019,0.0207,0.0144,0.0281,0.0299,0.0374,0.0376,0.0374,0.038,0.0555,0.0557,0.0559,0.0484,0,0,0,0,0,0,-0.0172,-0.0159,-0.0167,-0.0075,-0.0053,0.0001,0.0048,0.0068,0.0107,0.0114,0.0209,0.0225,0.0282,0.0364,0.038,0.0384,0.0385,0.0554,0.0556,0.0558,0.0484,0.0483,0.0481,0,0,0,0,0,-0.0177,-0.0194,-0.0168,-0.0156,-0.0065,0.0001,0.0018,0.0085,0.0107,0.0116,0.0197,0.0222,0.039,0.037,0.0389,0.0394,0.0553,0.0555,0.0558,0.0485,0.0483,0.0481,0,0,0,0,0,0,-0.0256,-0.0183,-0.0153,-0.0147,-0.0083,0.0016,0.0026,0.0076,0.0148,0.0152,0.0241,0.0263,0.0326,0.0377,0.0353,0.0459,0.0474,0.0481,0.0413,0.0411,0.0409,0.0379,0.039,0,0,0,0,0,-0.0278,-0.0271,-0.0184,-0.0182,-0.0156,-0.0066,-0.0033,0.0015,0.0092,0.0123,0.0197,0.0278,0.0353,0.0393,0.046,0.0519,0.0567,0.0537,0.0535,0.0533,0.0523,0.0611,0.0615,0.0569,0.0569,0.0569,0,0,-0.0308,-0.0268,-0.0264,-0.0198,-0.0146,-0.0109,-0.0046,-0.0005,0.0034,0.0128,0.0194,0.0267,0.0367,0.0435,0.0468,0.0478,0.0572,0.0536,0.0533,0.0525,0.0614,0.0618,0.0622,0.0571,0.057,0.057,0,0,-0.0366,-0.033,-0.0341,-0.0291,-0.0221,-0.0156,-0.015,-0.0052,-0.0003,0.0072,0.0154,0.0235,0.034,0.0423,0.0476,0.0508,0.0554,0.0522,0.0494,0.058,0.0583,0.0587,0.0647,0.0657,0.0527,0.0527,0.0527,0,-0.0408,-0.0403,-0.0334,-0.0322,-0.0287,-0.0184,-0.0173,-0.0102,0.0011,0.0057,0.0078,0.0264,0.0338,0.0447,0.0458,0.0501,0.0545,0.0487,0.0574,0.0579,0.0584,0.0645,0.0657,0.0524,0.0524,0.0525,0.0525,0,-0.046,-0.0451,-0.0454,-0.0401,-0.0351,-0.033,-0.022,-0.0165,-0.0095,-0.0013,0.0097,0.0216,0.0327,0.0366,0.0421,0.0503,0.052,0.0552,0.0568,0.0584,0.0648,0.0661,0.0519,0.052,0.0521,0.0522,0,0,-0.0567,-0.0506,-0.0507,-0.0494,-0.0393,-0.0359,-0.0288,-0.019,-0.014,-0.0026,0.005,0.0189,0.0255,0.032,0.0409,0.0486,0.056,0.0522,0.0528,0.0559,0.0728,0.08,0.0822,0.0602,0.0604,0.0606,0.0753,0,-0.0631,-0.065,-0.0578,-0.0568,-0.0564,-0.0437,-0.0377,-0.0271,-0.0165,-0.0065,0.0079,0.0177,0.024,0.0292,0.038,0.0523,0.0593,0.0516,0.0726,0.0732,0.0778,0.084,0.0927,0.1072,0.0767,0.0769,0.0771,0,-0.0706,-0.0706,-0.0726,-0.0654,-0.0636,-0.0601,-0.0484,-0.0414,-0.0239,-0.0156,-0.0025,0.0096,0.0248,0.0285,0.0522,0.0466,0.0577,0.068,0.0689,0.079,0.0831,0.1012,0.1108,0.1347,0.0792,0.0791,0.0789,0,-0.0835,-0.0802,-0.0827,-0.0804,-0.0705,-0.0676,-0.0612,-0.0456,-0.0389,-0.0215,-0.0147,0.0053,0.0161,0.0331,0.0555,0.0536,0.0806,0.0815,0.0983,0.0988,0.1122,0.1137,0.1459,0.096,0.096,0.0959,0.0959,0,-0.0935,-0.0949,-0.0895,-0.0906,-0.0914,-0.0797,-0.076,-0.0658,-0.0506,-0.0418,-0.0218,-0.0099,0.0176,0.0378,0.0549,0.0824,0.0811,0.099,0.1045,0.11,0.1109,0.137,0.1434,0.0965,0.0964,0.0963,0.0962,0,-0.1066,-0.1035,-0.1058,-0.0995,-0.098,-0.0988,-0.0881,-0.0838,-0.068,-0.0559,-0.0506,-0.0203,0.0085,0.0361,0.0673,0.0831,0.1224,0.116,0.1197,0.1253,0.1619,0.1672,0.1983,0.2113,0.137,0.1373,0.1376,0,-0.1133,-0.1166,-0.1155,-0.1183,-0.1159,-0.1144,-0.1122,-0.0962,-0.0892,-0.061,-0.0554,-0.0234,0.0035,0.0531,0.0889,0.1238,0.137,0.1478,0.1466,0.1677,0.1776,0.1792,0.1879,0.1612,0.1616,0.1619,0.1622,0,-0.1252,-0.125,-0.1268,-0.1343,-0.1352,-0.1335,-0.1279,-0.1243,-0.1018,-0.0855,-0.0569,-0.0324,0.0216,0.0732,0.1192,0.1374,0.1667,0.1557,0.1794,0.2014,0.2036,0.2174,0.1449,0.1653,0.165,0.1647,0.1646,0.1644,-0.1331,-0.1387,-0.1426,-0.1486,-0.1508,-0.1496,-0.1467,-0.1353,-0.1201,-0.0864,-0.0613,-0.0138,0.0601,0.1309,0.1539,0.2061,0.1939,0.2195,0.2244,0.2243,0.2377,0.1701,0.1951,0.195,0.1949,0.1948,0.1947,0,-0.1427,-0.148,-0.156,-0.1611,-0.1656,-0.162,-0.1539,-0.143,-0.1242,-0.0841,-0.0489,0.0431,0.1151,0.1774,0.2513,0.2762,0.2787,0.2855,0.2926,0.2983,0.2435,0.2457,0.2807,0.2807,0.2807,0.2806,0.2806,0.2806,-0.1478,-0.1586,-0.1627,-0.1729,-0.175,-0.1733,-0.1674,-0.1445,-0.1143,-0.0479,0.0104,0.0571,0.1452,0.2709,0.3383,0.3398,0.361,0.3553,0.3655,0.3308,0.3251,0.3196,0.324,0.3748,0.3749,0.4214,0.4219,0.4222]}],[{"header":{"parameterUnit":"m.s-1","parameterCategory":2,"la1":30.2991,"la2":30.254,"lo1":-89.0895,"lo2":-89.0444,"dy":0.0017,"dx":0.0017,"nx":28,"ny":28,"refTime":"2024-04-27T09:00:00:Z","depth":"2","parameterNumber":2,"parameterNumberName":"U-component_of_CURRENTS"},"data":[0,0,0,0,0,0,0,0,0,0,0,0,0,0,0,0,0,0,0,0,0,0,0,0,0,0,0,0,0,0,0,0,0,0,0,0,0,0,0,0,0,0,0,0,0,0,0,0,0,0,0,0,0,0,0,0,0,0,-0.3085,-0.3086,0,-0.3145,-0.3145,-0.3145,-0.311,-0.3109,-0.3108,-0.3107,-0.3011,-0.3009,-0.3008,0,0,0,0,0,0,0,0,0,0,0,0,0,-0.2917,-0.292,-0.3085,-0.3086,-0.3088,-0.3145,-0.3145,-0.3145,-0.311,-0.3109,-0.3108,-0.3106,-0.3011,-0.301,-0.3008,0,0,0,0,0,0,0,0,0,0,0,0,0,-0.2979,-0.2921,-0.3085,-0.3081,-0.3082,-0.3145,-0.3145,-0.3145,-0.3111,-0.3109,-0.3107,-0.3106,-0.3012,-0.301,-0.3008,-0.3029,0,0,-0.3001,-0.3,0,0,0,0,0,0,0,0,-0.2976,-0.2985,-0.3081,-0.3082,-0.3083,-0.3123,-0.3051,-0.3101,-0.3111,-0.3094,-0.3107,-0.3105,-0.3039,-0.3035,-0.3044,-0.3025,-0.302,-0.3001,-0.2999,-0.2998,-0.2998,0,0,0,0,0,0,0,-0.2972,-0.2982,-0.3103,-0.3082,-0.3084,-0.3069,-0.3075,-0.306,-0.3068,-0.3095,-0.3094,-0.3111,-0.3037,-0.3046,-0.3041,-0.3019,-0.3001,-0.2999,-0.2997,-0.2997,-0.305,-0.3052,0,0,0,0,0,0,-0.298,-0.2979,-0.3101,-0.3105,-0.303,-0.3074,-0.3081,-0.3107,-0.3072,-0.3068,-0.3112,-0.3109,-0.3051,-0.3044,-0.3037,-0.3071,-0.2998,-0.2996,-0.2995,-0.3047,-0.305,-0.3053,0,0,0,0,0,0,-0.2976,-0.2991,-0.3099,-0.3046,-0.306,-0.3079,-0.3109,-0.311,-0.3118,-0.3087,-0.3078,-0.312,-0.3049,-0.304,-0.305,-0.3066,-0.2995,-0.2993,-0.3044,-0.3048,-0.3052,-0.313,0,0,0,0,0,0,-0.2971,-0.2989,-0.3004,-0.3048,-0.3064,-0.3144,-0.3111,-0.3112,-0.3133,-0.3129,-0.3091,-0.3081,-0.3047,-0.3054,-0.3048,-0.3061,-0.2992,-0.304,-0.3046,-0.305,-0.3124,-0.3136,-0.3147,0,0,0,0,0,-0.2965,-0.3,-0.3004,-0.3019,-0.3086,-0.3147,-0.3153,-0.3156,-0.3136,-0.3152,-0.3139,-0.3082,-0.3082,-0.3055,-0.3047,-0.306,-0.3038,-0.3044,-0.305,-0.3119,-0.3134,-0.3146,0,0,0,0,0,0,-0.2929,-0.3002,-0.3007,-0.3059,-0.3103,-0.3143,-0.3161,-0.3165,-0.317,-0.3159,-0.3117,-0.3108,-0.3119,-0.3095,-0.3067,-0.3097,-0.305,-0.3055,-0.3105,-0.3119,-0.313,-0.3121,-0.299,0,0,0,0,0,-0.2933,-0.2977,-0.3038,-0.3077,-0.3103,-0.3132,-0.3153,-0.3164,-0.3181,-0.3181,-0.3159,-0.3144,-0.3143,-0.3135,-0.3126,-0.3144,-0.311,-0.3151,-0.3162,-0.3172,-0.3164,-0.314,-0.3147,-0.3073,-0.3073,-0.3073,0,0,-0.2928,-0.2974,-0.2997,-0.3072,-0.3101,-0.3157,-0.3139,-0.3185,-0.3221,-0.3169,-0.3195,-0.3178,-0.3159,-0.3181,-0.3183,-0.3157,-0.3184,-0.3179,-0.3187,-0.3174,-0.3147,-0.3154,-0.316,-0.3077,-0.3077,-0.3076,0,0,-0.2954,-0.2986,-0.3036,-0.3083,-0.3147,-0.3173,-0.3191,-0.324,-0.3246,-0.3285,-0.3257,-0.3259,-0.3255,-0.3248,-0.3243,-0.3316,-0.3245,-0.3315,-0.3358,-0.3336,-0.3341,-0.3344,-0.3337,-0.3339,-0.332,-0.332,-0.332,0,-0.2939,-0.3019,-0.3057,-0.3122,-0.3162,-0.3185,-0.3245,-0.3271,-0.3312,-0.3319,-0.33,-0.3308,-0.3286,-0.331,-0.3339,-0.3335,-0.3316,-0.3301,-0.3347,-0.3349,-0.3351,-0.3343,-0.3344,-0.3325,-0.3324,-0.3324,-0.3323,0,-0.3014,-0.3074,-0.3109,-0.3198,-0.3243,-0.3299,-0.3351,-0.3379,-0.3383,-0.3397,-0.3416,-0.3402,-0.3397,-0.3404,-0.339,-0.3409,-0.339,-0.336,-0.3301,-0.3363,-0.3351,-0.3351,-0.3331,-0.3329,-0.3328,-0.3327,0,0,-0.2982,-0.3131,-0.3141,-0.3188,-0.3287,-0.3327,-0.3394,-0.3451,-0.3473,-0.3493,-0.3509,-0.3523,-0.3495,-0.349,-0.3472,-0.346,-0.3471,-0.3422,-0.3419,-0.3397,-0.3433,-0.339,-0.3385,-0.3442,-0.3442,-0.3442,-0.3427,0,-0.3022,-0.3147,-0.3215,-0.3311,-0.3372,-0.3421,-0.3477,-0.3523,-0.3543,-0.3561,-0.3547,-0.3552,-0.3536,-0.3525,-0.3517,-0.3477,-0.347,-0.3478,-0.3392,-0.3389,-0.3327,-0.3383,-0.3085,-0.3043,-0.3426,-0.3426,-0.3426,0,-0.3062,-0.3146,-0.3251,-0.3362,-0.3391,-0.3442,-0.3508,-0.3564,-0.3603,-0.3613,-0.3618,-0.3602,-0.3604,-0.3565,-0.3532,-0.3537,-0.3494,-0.346,-0.3458,-0.3382,-0.3345,-0.304,-0.3027,-0.3424,-0.3424,-0.3424,-0.3425,0,-0.3005,-0.3156,-0.3232,-0.3276,-0.3411,-0.3443,-0.3497,-0.356,-0.3597,-0.3628,-0.3643,-0.3641,-0.3629,-0.3585,-0.3532,-0.3528,-0.3476,-0.3457,-0.3384,-0.3381,-0.3091,-0.3062,-0.3421,-0.3422,-0.3422,-0.3422,-0.3422,0,-0.3016,-0.3071,-0.3205,-0.3248,-0.3307,-0.3409,-0.3456,-0.3511,-0.358,-0.3607,-0.3648,-0.3654,-0.3629,-0.3601,-0.3544,-0.3467,-0.3485,-0.3396,-0.3372,-0.3117,-0.3093,-0.3385,-0.3381,-0.3421,-0.3421,-0.3421,-0.3421,0,-0.2941,-0.3043,-0.3117,-0.325,-0.328,-0.331,-0.3422,-0.346,-0.3545,-0.3581,-0.3591,-0.3657,-0.3628,-0.36,-0.3527,-0.348,-0.3407,-0.3369,-0.3089,-0.3033,-0.3329,-0.333,-0.3299,-0.3298,-0.3296,-0.3295,-0.3294,0,-0.2919,-0.2952,-0.307,-0.3097,-0.3152,-0.3219,-0.3266,-0.3398,-0.3441,-0.3564,-0.3565,-0.3596,-0.3569,-0.3493,-0.3365,-0.3264,-0.3359,-0.2988,-0.2933,-0.3336,-0.3316,-0.3319,-0.3321,-0.2584,-0.2578,-0.2572,-0.2568,0,-0.2845,-0.2872,-0.2928,-0.2986,-0.3037,-0.3097,-0.3174,-0.3215,-0.3362,-0.3408,-0.3464,-0.3465,-0.3403,-0.3171,-0.3071,-0.2966,-0.2986,-0.2879,-0.3323,-0.2688,-0.2667,-0.2647,-0.267,-0.2519,-0.2524,-0.2527,-0.253,-0.2532,-0.2741,-0.2745,-0.2801,-0.284,-0.2898,-0.2936,-0.2919,-0.2987,-0.3029,-0.2993,-0.3191,-0.3054,-0.3057,-0.272,-0.2621,-0.2518,-0.271,-0.2589,-0.2603,-0.2623,-0.2569,-0.2549,-0.2369,-0.2373,-0.2376,-0.2379,-0.2382,0,-0.2583,-0.2623,-0.2654,-0.2684,-0.2645,-0.2761,-0.2817,-0.2692,-0.2617,-0.2632,-0.2594,-0.2334,-0.2236,-0.2246,-0.2014,-0.2033,-0.1965,-0.1971,-0.1865,-0.1914,-0.1957,-0.1867,-0.1482,-0.148,-0.1478,-0.1477,0,0,-0.2499,-0.2465,-0.2484,-0.2387,-0.2416,-0.2269,-0.2253,-0.2093,-0.2001,-0.18,-0.1723,-0.1893,-0.2072,-0.1717,-0.1698,-0.1548,-0.1689,-0.1462,-0.2167,-0.2077,-0.2117,-0.2288,-0.2202,0,0,0,0,0]},{"header":{"parameterUnit":"m.s-1","parameterCategory":2,"la1":30.2991,"la2":30.254,"lo1":-89.0895,"lo2":-89.0444,"dy":0.0017,"dx":0.0017,"nx":28,"ny":28,"refTime":"2024-04-27T09:00:00:Z","depth":"2","parameterNumber":3,"parameterNumberName":"V-component_of_CURRENTS"},"data":[0,0,0,0,0,0,0,0,0,0,0,0,0,0,0,0,0,0,0,0,0,0,0,0,0,0,0,0,0,0,0,0,0,0,0,0,0,0,0,0,0,0,0,0,0,0,0,0,0,0,0,0,0,0,0,0,0,0,-0.0125,-0.0123,0,0.0038,0.004,0.0042,0.0135,0.0135,0.0136,0.0136,0.0296,0.03,0.0304,0,0,0,0,0,0,0,0,0,0,0,0,0,-0.0252,-0.025,-0.0125,-0.0123,-0.0121,0.0038,0.004,0.0042,0.0135,0.0135,0.0136,0.0136,0.0295,0.0299,0.0304,0,0,0,0,0,0,0,0,0,0,0,0,0,-0.0153,-0.025,-0.0125,-0.0057,-0.0049,0.0037,0.004,0.0043,0.0135,0.0135,0.0136,0.0136,0.0293,0.0299,0.0305,0.0336,0,0,0.0324,0.0326,0,0,0,0,0,0,0,0,-0.0159,-0.0148,-0.0069,-0.0061,-0.0053,0.0065,0.0054,0.0141,0.0135,0.0067,0.0136,0.0136,0.0218,0.023,0.0262,0.0344,0.0351,0.0324,0.0328,0.0331,0.0332,0,0,0,0,0,0,0,-0.0166,-0.0154,-0.0059,-0.0067,-0.0057,0.0002,0.0015,0.0072,0.0139,0.0073,0.0079,0.0095,0.0222,0.0256,0.0266,0.0353,0.0324,0.0329,0.0333,0.0336,0.0518,0.0519,0,0,0,0,0,0,-0.0194,-0.0161,-0.0064,-0.0054,-0.0107,0.0003,0.0018,0.0028,0.0139,0.0156,0.0095,0.0099,0.0245,0.0259,0.0272,0.0333,0.033,0.0336,0.034,0.0516,0.0518,0.0519,0,0,0,0,0,0,-0.0198,-0.0187,-0.0071,-0.0104,-0.0086,0.0004,0.0015,0.0031,0.0064,0.0156,0.0173,0.011,0.0246,0.0264,0.0337,0.0339,0.0339,0.0344,0.0515,0.0517,0.0518,0.0442,0,0,0,0,0,0,-0.0202,-0.019,-0.0197,-0.0107,-0.0085,-0.0033,0.0015,0.0034,0.0073,0.008,0.0175,0.019,0.0248,0.0328,0.0343,0.0347,0.0349,0.0513,0.0516,0.0518,0.0443,0.0441,0.044,0,0,0,0,0,-0.0207,-0.0224,-0.0198,-0.0187,-0.0097,-0.0033,-0.0017,0.005,0.0073,0.0082,0.0162,0.0187,0.0352,0.0334,0.0352,0.0357,0.0512,0.0515,0.0518,0.0444,0.0442,0.044,0,0,0,0,0,0,-0.0285,-0.0213,-0.0184,-0.0178,-0.0116,-0.0018,-0.0008,0.0041,0.0112,0.0117,0.0205,0.0227,0.0288,0.034,0.0317,0.042,0.0435,0.0442,0.0374,0.0372,0.037,0.034,0.0354,0,0,0,0,0,-0.0306,-0.0301,-0.0215,-0.0213,-0.0188,-0.0099,-0.0067,-0.002,0.0056,0.0088,0.016,0.0241,0.0314,0.0354,0.042,0.0477,0.0525,0.0494,0.0492,0.049,0.048,0.0568,0.0572,0.0528,0.0528,0.0528,0,0,-0.0336,-0.0297,-0.0293,-0.0229,-0.0178,-0.0143,-0.0079,-0.004,-0.0002,0.0093,0.0157,0.023,0.0327,0.0394,0.0426,0.0437,0.0529,0.0493,0.049,0.0482,0.0571,0.0575,0.0579,0.0529,0.0529,0.0529,0,0,-0.0394,-0.0359,-0.0371,-0.0322,-0.0254,-0.019,-0.0184,-0.0088,-0.0039,0.0034,0.0115,0.0195,0.0299,0.0381,0.0433,0.0462,0.051,0.0477,0.0448,0.0533,0.0537,0.0541,0.06,0.061,0.0482,0.0482,0.0481,0,-0.0436,-0.0432,-0.0364,-0.0353,-0.0319,-0.0218,-0.0208,-0.0139,-0.0028,0.0018,0.0039,0.0223,0.0296,0.0403,0.0413,0.0455,0.05,0.0443,0.0527,0.0533,0.0538,0.0598,0.061,0.0478,0.0479,0.0479,0.0479,0,-0.049,-0.0481,-0.0485,-0.0434,-0.0386,-0.0366,-0.0258,-0.0204,-0.0134,-0.0053,0.0055,0.0173,0.0282,0.0321,0.0375,0.0456,0.0473,0.0506,0.0522,0.0537,0.06,0.0614,0.0473,0.0475,0.0476,0.0476,0,0,-0.0596,-0.0538,-0.0539,-0.0526,-0.0428,-0.0396,-0.0327,-0.0231,-0.0181,-0.0069,0.0006,0.0142,0.0209,0.0273,0.0361,0.0437,0.0511,0.0474,0.0481,0.0512,0.0679,0.0747,0.0769,0.0553,0.0556,0.0557,0.0704,0,-0.066,-0.0682,-0.0612,-0.0603,-0.06,-0.0476,-0.0418,-0.0313,-0.0208,-0.0109,0.0033,0.0131,0.0193,0.0245,0.0332,0.0475,0.0544,0.0467,0.0678,0.0684,0.0726,0.0786,0.0642,0.0766,0.0718,0.072,0.0722,0,-0.0736,-0.0737,-0.0759,-0.0689,-0.0672,-0.0639,-0.0523,-0.0455,-0.0283,-0.02,-0.007,0.005,0.02,0.0238,0.0473,0.0418,0.0529,0.0631,0.064,0.0737,0.0778,0.075,0.0793,0.0745,0.0743,0.0741,0.074,0,-0.0863,-0.0833,-0.0859,-0.0837,-0.0741,-0.0713,-0.0651,-0.0497,-0.0431,-0.0258,-0.019,0.0008,0.0116,0.0284,0.0507,0.0488,0.0756,0.0765,0.0929,0.0934,0.0872,0.0869,0.091,0.091,0.0909,0.0909,0.0908,0,-0.0963,-0.0977,-0.0926,-0.0938,-0.0947,-0.0832,-0.0795,-0.0695,-0.0544,-0.0459,-0.026,-0.0142,0.013,0.0331,0.0501,0.0772,0.0761,0.0936,0.099,0.0844,0.0837,0.0865,0.0857,0.0914,0.0913,0.0912,0.0911,0,-0.1092,-0.1063,-0.1087,-0.1026,-0.1012,-0.1019,-0.0914,-0.0872,-0.0716,-0.0596,-0.0543,-0.0244,0.0041,0.0314,0.0624,0.0779,0.1017,0.1104,0.091,0.094,0.1129,0.1117,0.1302,0.1306,0.1309,0.1312,0.1314,0,-0.1159,-0.1192,-0.1182,-0.121,-0.1188,-0.1173,-0.1151,-0.0993,-0.0925,-0.0646,-0.0591,-0.0275,-0.0016,0.0474,0.0771,0.11,0.112,0.1175,0.1131,0.1143,0.1176,0.1158,0.1141,0.1005,0.1005,0.1005,0.1004,0,-0.1276,-0.1274,-0.1294,-0.1368,-0.1377,-0.1361,-0.1306,-0.1271,-0.105,-0.0892,-0.0611,-0.0376,0.0104,0.0468,0.0898,0.1057,0.1117,0.1185,0.1263,0.0943,0.088,0.0907,0.0897,0.1002,0.1002,0.1002,0.1002,0.1002,-0.1354,-0.1409,-0.1449,-0.1509,-0.1531,-0.1519,-0.1492,-0.1386,-0.1241,-0.0962,-0.07,-0.0341,0.0049,0.063,0.0925,0.116,0.1186,0.1221,0.1214,0.1209,0.1164,0.1112,0.1267,0.1268,0.127,0.1271,0.1272,0,-0.1446,-0.1501,-0.1581,-0.1632,-0.1672,-0.1642,-0.1563,-0.1478,-0.1306,-0.1031,-0.0727,-0.0307,0.0125,0.0513,0.0875,0.116,0.108,0.1192,0.1021,0.1021,0.1022,0.0961,0.1014,0.1014,0.1015,0.1015,0,0,-0.1495,-0.16,-0.164,-0.1739,-0.1764,-0.1754,-0.1698,-0.1534,-0.1327,-0.1039,-0.0781,-0.0398,0.0103,0.0329,0.0655,0.0841,0.0852,0.0834,0.0999,0.0754,0.0752,0.0988,0.089,0,0,0,0,0]}],[{"header":{"parameterUnit":"m.s-1","parameterCategory":2,"la1":30.2991,"la2":30.254,"lo1":-89.0895,"lo2":-89.0444,"dy":0.0017,"dx":0.0017,"nx":28,"ny":28,"refTime":"2024-04-27T09:00:00:Z","depth":"4","parameterNumber":2,"parameterNumberName":"U-component_of_CURRENTS"},"data":[0,0,0,0,0,0,0,0,0,0,0,0,0,0,0,0,0,0,0,0,0,0,0,0,0,0,0,0,0,0,0,0,0,0,0,0,0,0,0,0,0,0,0,0,0,0,0,0,0,0,0,0,0,0,0,0,0,0,-0.1833,-0.1835,0,-0.1906,-0.1907,-0.1907,-0.1941,-0.1942,-0.1942,-0.1942,-0.1946,-0.1946,-0.1946,0,0,0,0,0,0,0,0,0,0,0,0,0,-0.1701,-0.1703,-0.1833,-0.1835,-0.1836,-0.1906,-0.1907,-0.1907,-0.1941,-0.1942,-0.1942,-0.1942,-0.1947,-0.1946,-0.1946,0,0,0,0,0,0,0,0,0,0,0,0,0,-0.176,-0.1703,-0.1833,-0.1864,-0.1868,-0.1906,-0.1907,-0.1907,-0.1941,-0.1942,-0.1942,-0.1943,-0.1947,-0.1946,-0.1946,-0.1934,0,0,-0.1945,-0.1945,0,0,0,0,0,0,0,0,-0.1757,-0.1765,-0.1858,-0.1862,-0.1867,-0.1919,-0.1862,-0.1914,-0.1941,-0.1909,-0.1942,-0.1943,-0.1933,-0.1934,-0.1942,-0.1935,-0.1935,-0.1945,-0.1945,-0.1945,-0.1945,0,0,0,0,0,0,0,-0.1753,-0.1762,-0.1858,-0.186,-0.1865,-0.1867,-0.1876,-0.1872,-0.1913,-0.1912,-0.1916,-0.193,-0.1934,-0.1942,-0.1942,-0.1935,-0.1945,-0.1945,-0.1945,-0.1945,-0.205,-0.2053,0,0,0,0,0,0,-0.1753,-0.1758,-0.1856,-0.1861,-0.1816,-0.1869,-0.1879,-0.1898,-0.1915,-0.192,-0.193,-0.1931,-0.1942,-0.1942,-0.1942,-0.2039,-0.1945,-0.1945,-0.1944,-0.2047,-0.2051,-0.2054,0,0,0,0,0,0,-0.175,-0.1761,-0.1853,-0.1814,-0.1826,-0.1872,-0.1893,-0.1899,-0.1943,-0.193,-0.1932,-0.197,-0.1943,-0.1943,-0.1991,-0.2035,-0.1944,-0.1944,-0.2044,-0.2048,-0.2053,-0.2161,0,0,0,0,0,0,-0.1746,-0.176,-0.1785,-0.1814,-0.1829,-0.1902,-0.1893,-0.1901,-0.195,-0.1954,-0.1964,-0.1964,-0.1943,-0.1992,-0.199,-0.2033,-0.1944,-0.204,-0.2046,-0.2051,-0.2153,-0.2168,-0.2181,0,0,0,0,0,-0.1741,-0.1771,-0.1786,-0.1799,-0.1858,-0.1904,-0.1912,-0.1942,-0.1952,-0.1981,-0.2003,-0.1965,-0.2026,-0.1994,-0.1992,-0.2035,-0.2037,-0.2044,-0.2051,-0.2147,-0.2165,-0.2181,0,0,0,0,0,0,-0.1727,-0.1779,-0.1795,-0.1841,-0.1883,-0.1912,-0.1944,-0.1965,-0.2004,-0.2016,-0.2,-0.2002,-0.2058,-0.2039,-0.2004,-0.2086,-0.2026,-0.2033,-0.21,-0.2117,-0.2131,-0.2122,-0.1944,0,0,0,0,0,-0.1736,-0.1773,-0.182,-0.1859,-0.1884,-0.1921,-0.1949,-0.1974,-0.2007,-0.2027,-0.2041,-0.2058,-0.2078,-0.2094,-0.2102,-0.2145,-0.2112,-0.2175,-0.2189,-0.22,-0.2195,-0.2192,-0.2204,-0.2076,-0.2076,-0.2076,0,0,-0.174,-0.1775,-0.1796,-0.1859,-0.1892,-0.1942,-0.1939,-0.1996,-0.2046,-0.2018,-0.2095,-0.2105,-0.2102,-0.2156,-0.2179,-0.2149,-0.2227,-0.2209,-0.2218,-0.2207,-0.22,-0.2212,-0.2223,-0.2081,-0.208,-0.2079,0,0,-0.1759,-0.1802,-0.1838,-0.1883,-0.1949,-0.1976,-0.2004,-0.2062,-0.21,-0.2169,-0.2168,-0.221,-0.2244,-0.2255,-0.226,-0.2355,-0.2298,-0.2368,-0.2431,-0.2429,-0.2439,-0.2446,-0.2442,-0.2448,-0.2377,-0.2377,-0.2377,0,-0.1762,-0.1819,-0.1857,-0.1908,-0.1954,-0.1999,-0.2055,-0.21,-0.2171,-0.2205,-0.221,-0.2285,-0.2286,-0.2341,-0.2386,-0.2383,-0.2372,-0.2364,-0.2444,-0.2451,-0.2457,-0.245,-0.2456,-0.2383,-0.2383,-0.2382,-0.2381,0,-0.1803,-0.1865,-0.1894,-0.1974,-0.2027,-0.2085,-0.2153,-0.2216,-0.2267,-0.2303,-0.2385,-0.2402,-0.2439,-0.246,-0.2454,-0.2513,-0.2489,-0.2458,-0.2394,-0.2476,-0.2465,-0.2468,-0.2392,-0.239,-0.2388,-0.2386,0,0,-0.1757,-0.1896,-0.1907,-0.1964,-0.2072,-0.2114,-0.2212,-0.2297,-0.2357,-0.2427,-0.2491,-0.2553,-0.2562,-0.257,-0.2574,-0.2586,-0.2634,-0.2555,-0.2552,-0.2536,-0.2636,-0.2471,-0.2459,-0.2618,-0.2619,-0.262,-0.2617,0,-0.1777,-0.1879,-0.1951,-0.2057,-0.2116,-0.2204,-0.2286,-0.2372,-0.244,-0.2513,-0.2548,-0.2606,-0.2604,-0.2633,-0.265,-0.2633,-0.2647,-0.2638,-0.257,-0.2568,-0.2399,-0.2458,-0.2623,-0.2619,-0.262,-0.262,-0.2621,0,-0.1776,-0.1855,-0.1962,-0.2107,-0.2142,-0.2218,-0.235,-0.2431,-0.2537,-0.259,-0.2654,-0.2675,-0.2729,-0.2701,-0.2717,-0.2715,-0.269,-0.267,-0.2668,-0.2471,-0.2409,-0.2516,-0.2627,-0.2626,-0.2626,-0.2625,-0.2625,0,-0.1697,-0.1853,-0.1941,-0.1993,-0.2162,-0.2237,-0.2328,-0.2452,-0.2523,-0.2636,-0.2685,-0.2742,-0.2775,-0.2761,-0.2736,-0.2736,-0.2721,-0.2703,-0.2533,-0.2522,-0.2621,-0.2612,-0.2701,-0.2701,-0.2701,-0.2701,-0.2702,0,-0.1663,-0.1736,-0.192,-0.1969,-0.2075,-0.2211,-0.2323,-0.242,-0.2552,-0.261,-0.2715,-0.2743,-0.2792,-0.2788,-0.2753,-0.2645,-0.2732,-0.2543,-0.2506,-0.2672,-0.2669,-0.2624,-0.2615,-0.2701,-0.2701,-0.2701,-0.2701,0,-0.1547,-0.1674,-0.1782,-0.1978,-0.2039,-0.2112,-0.2307,-0.2379,-0.2528,-0.2603,-0.2641,-0.2756,-0.2745,-0.2758,-0.2729,-0.2647,-0.2568,-0.2507,-0.2691,-0.2665,-0.2374,-0.2371,-0.2322,-0.2316,-0.2311,-0.2306,-0.2303,0,-0.1494,-0.154,-0.1745,-0.1808,-0.1904,-0.2041,-0.213,-0.2327,-0.2393,-0.2571,-0.2574,-0.2645,-0.2682,-0.2518,-0.2552,-0.247,-0.2437,-0.2403,-0.2387,-0.2363,-0.2334,-0.2339,-0.2343,-0.2295,-0.2294,-0.2292,-0.2291,0,-0.1378,-0.1463,-0.155,-0.1677,-0.1791,-0.1899,-0.2038,-0.2071,-0.2273,-0.2435,-0.2439,-0.2435,-0.2421,-0.239,-0.2345,-0.2285,-0.2428,-0.235,-0.2361,-0.2345,-0.233,-0.2307,-0.2317,-0.2274,-0.2276,-0.2278,-0.2279,0,-0.1273,-0.1301,-0.142,-0.1515,-0.1644,-0.1705,-0.1816,-0.1904,-0.1999,-0.2211,-0.2193,-0.2272,-0.2381,-0.2291,-0.224,-0.2176,-0.2146,-0.2088,-0.2111,-0.2131,-0.2067,-0.2021,-0.1833,0,0,0,0,0,-0.1153,-0.1168,-0.1249,-0.1348,-0.1469,-0.1536,-0.1724,-0.1843,-0.2037,-0.1982,-0.2089,-0.2062,-0.2029,-0.2074,-0.1961,-0.2134,-0.2139,-0.1997,-0.2081,-0.2177,-0.2197,-0.2138,0,0,0,0,0,0,-0.1074,-0.1129,-0.118,-0.1177,-0.1202,-0.1317,-0.1424,-0.1573,-0.1566,-0.1766,-0.175,-0.1914,-0.1895,-0.2022,-0.1897,-0.191,-0.1922,-0.2062,-0.2057,-0.2166,-0.2184,-0.22,-0.2146,0,0,0,0,0]},{"header":{"parameterUnit":"m.s-1","parameterCategory":2,"la1":30.2991,"la2":30.254,"lo1":-89.0895,"lo2":-89.0444,"dy":0.0017,"dx":0.0017,"nx":28,"ny":28,"refTime":"2024-04-27T09:00:00:Z","depth":"4","parameterNumber":3,"parameterNumberName":"V-component_of_CURRENTS"},"data":[0,0,0,0,0,0,0,0,0,0,0,0,0,0,0,0,0,0,0,0,0,0,0,0,0,0,0,0,0,0,0,0,0,0,0,0,0,0,0,0,0,0,0,0,0,0,0,0,0,0,0,0,0,0,0,0,0,0,-0.0208,-0.0207,0,-0.0109,-0.0108,-0.0107,-0.0034,-0.0033,-0.0033,-0.0032,0.009,0.0093,0.0096,0,0,0,0,0,0,0,0,0,0,0,0,0,-0.0277,-0.0277,-0.0208,-0.0207,-0.0206,-0.0109,-0.0108,-0.0106,-0.0034,-0.0033,-0.0032,-0.0032,0.0089,0.0092,0.0096,0,0,0,0,0,0,0,0,0,0,0,0,0,-0.0218,-0.0277,-0.0208,-0.0159,-0.0154,-0.011,-0.0108,-0.0106,-0.0034,-0.0033,-0.0032,-0.0032,0.0088,0.0092,0.0096,0.0108,0,0,0.0109,0.0111,0,0,0,0,0,0,0,0,-0.0222,-0.0216,-0.0167,-0.0163,-0.0157,-0.0085,-0.0088,-0.0034,-0.0034,-0.0078,-0.0032,-0.0031,0.0032,0.0041,0.006,0.0114,0.0119,0.0109,0.0112,0.0114,0.0115,0,0,0,0,0,0,0,-0.0226,-0.0219,-0.0167,-0.0166,-0.016,-0.0123,-0.0114,-0.0077,-0.0026,-0.0074,-0.0069,-0.0061,0.0036,0.0056,0.0064,0.0121,0.0109,0.0113,0.0116,0.0117,0.0229,0.023,0,0,0,0,0,0,-0.0246,-0.0224,-0.017,-0.0164,-0.019,-0.0123,-0.0113,-0.0107,-0.0027,-0.0015,-0.0061,-0.0058,0.0048,0.0059,0.0068,0.0104,0.0114,0.0118,0.012,0.0229,0.0229,0.023,0,0,0,0,0,0,-0.0248,-0.0242,-0.0174,-0.0193,-0.0182,-0.0123,-0.0117,-0.0105,-0.0084,-0.0018,-0.0005,-0.0052,0.0049,0.0062,0.011,0.0108,0.012,0.0124,0.0228,0.0229,0.0229,0.0164,0,0,0,0,0,0,-0.025,-0.0243,-0.025,-0.0194,-0.0182,-0.016,-0.0117,-0.0104,-0.0081,-0.0075,-0.0006,0.0006,0.0051,0.0103,0.0114,0.0114,0.0127,0.0228,0.0228,0.0229,0.0165,0.0162,0.0159,0,0,0,0,0,-0.0253,-0.027,-0.0251,-0.0245,-0.0192,-0.0161,-0.0151,-0.0105,-0.0082,-0.0081,-0.0022,0.0004,0.0116,0.0107,0.0119,0.0121,0.0227,0.0228,0.0229,0.0167,0.0163,0.0159,0,0,0,0,0,0,-0.0302,-0.0262,-0.0241,-0.0244,-0.021,-0.0149,-0.0148,-0.0112,-0.0065,-0.0059,0.001,0.0026,0.0065,0.0104,0.0092,0.0158,0.0176,0.0179,0.0124,0.0121,0.0118,0.0099,0.013,0,0,0,0,0,-0.0318,-0.0321,-0.0271,-0.0275,-0.0263,-0.0206,-0.0189,-0.0157,-0.0107,-0.0085,-0.0032,0.0027,0.0079,0.0107,0.0152,0.0187,0.0231,0.0198,0.0194,0.0191,0.0187,0.0265,0.0268,0.0233,0.0233,0.0233,0,0,-0.0339,-0.0318,-0.0319,-0.0287,-0.0257,-0.0246,-0.0194,-0.0177,-0.0158,-0.0081,-0.0043,0.0013,0.0085,0.0126,0.0147,0.0159,0.0223,0.0193,0.0189,0.0186,0.0266,0.027,0.0273,0.0234,0.0233,0.0233,0,0,-0.0387,-0.0364,-0.0384,-0.036,-0.0325,-0.0286,-0.0285,-0.0226,-0.0193,-0.0151,-0.0085,-0.0025,0.0042,0.0105,0.0143,0.0151,0.02,0.0161,0.0135,0.0211,0.0214,0.0217,0.0265,0.0273,0.0164,0.0164,0.0164,0,-0.0416,-0.0427,-0.0385,-0.0392,-0.0377,-0.0309,-0.0316,-0.0273,-0.0203,-0.0169,-0.0153,-0.002,0.0035,0.011,0.0114,0.0143,0.0184,0.0139,0.0205,0.021,0.0215,0.0263,0.0273,0.0161,0.0161,0.0161,0.0162,0,-0.0473,-0.0478,-0.0488,-0.0471,-0.0448,-0.0447,-0.0381,-0.0349,-0.0299,-0.0241,-0.0164,-0.0077,0.0006,0.0033,0.0075,0.014,0.0156,0.0187,0.0209,0.0214,0.0264,0.0276,0.0156,0.0157,0.0158,0.0159,0,0,-0.0542,-0.0533,-0.0536,-0.0538,-0.049,-0.0476,-0.0443,-0.0385,-0.035,-0.0275,-0.0219,-0.0122,-0.0063,-0.0015,0.0055,0.0122,0.0186,0.0159,0.0165,0.0195,0.0334,0.0299,0.0309,0.0229,0.0231,0.0232,0.035,0,-0.0599,-0.0642,-0.0607,-0.0625,-0.0636,-0.0558,-0.053,-0.0462,-0.0388,-0.0317,-0.0206,-0.0131,-0.0083,-0.0038,0.0035,0.0158,0.0216,0.015,0.0335,0.034,0.03,0.0321,0.0239,0.0359,0.0362,0.0364,0.0365,0,-0.0661,-0.0681,-0.0724,-0.0698,-0.0693,-0.0687,-0.0616,-0.0579,-0.0455,-0.0393,-0.0292,-0.0194,-0.0074,-0.004,0.0156,0.0112,0.0206,0.0294,0.0301,0.03,0.0327,0.036,0.0387,0.0385,0.0384,0.0382,0.0381,0,-0.0736,-0.075,-0.0791,-0.0787,-0.0752,-0.0744,-0.0713,-0.061,-0.0568,-0.0436,-0.0383,-0.0225,-0.0135,0.0007,0.0188,0.0178,0.0397,0.0413,0.0467,0.0465,0.0489,0.0484,0.0535,0.0535,0.0535,0.0535,0.0534,0,-0.08,-0.0829,-0.0837,-0.0858,-0.0887,-0.0826,-0.0817,-0.0751,-0.065,-0.0592,-0.0435,-0.0347,-0.0118,0.0042,0.0183,0.036,0.0399,0.0462,0.0499,0.0457,0.0447,0.0497,0.049,0.0539,0.0538,0.0537,0.0537,0,-0.0864,-0.0877,-0.0922,-0.0923,-0.093,-0.0947,-0.0907,-0.0882,-0.0778,-0.0696,-0.0654,-0.0423,-0.0209,0.0007,0.0265,0.0353,0.0528,0.0575,0.0501,0.0532,0.0541,0.053,0.0642,0.0642,0.0642,0.0642,0.0641,0,-0.0898,-0.0936,-0.0988,-0.1028,-0.1036,-0.1053,-0.1056,-0.0966,-0.0921,-0.0738,-0.0694,-0.0465,-0.0302,0.0039,0.0255,0.0519,0.0546,0.062,0.0585,0.053,0.0555,0.0544,0.0534,0.0641,0.0641,0.0641,0.0641,0,-0.095,-0.0978,-0.1015,-0.1111,-0.1148,-0.117,-0.1158,-0.1135,-0.1002,-0.092,-0.0703,-0.0488,-0.0246,0.0032,0.0242,0.0428,0.0567,0.0619,0.062,0.0588,0.0531,0.0553,0.0543,0.0641,0.0641,0.0641,0.0641,0,-0.098,-0.1024,-0.1089,-0.1159,-0.1226,-0.1248,-0.1238,-0.1151,-0.1083,-0.0868,-0.08,-0.0505,-0.0313,-0.0015,0.018,0.0361,0.0393,0.0425,0.0437,0.044,0.0341,0.0237,0.029,0,0,0,0,0,-0.0995,-0.1045,-0.1127,-0.1192,-0.1262,-0.1291,-0.1278,-0.124,-0.1124,-0.0987,-0.0883,-0.0647,-0.0297,-0.012,0.0052,0.0139,0.0392,0.0341,0.0425,0.0639,0.0639,0.0554,0,0,0,0,0,0,-0.1005,-0.1085,-0.1124,-0.1204,-0.1255,-0.1305,-0.1303,-0.1232,-0.1128,-0.0991,-0.0794,-0.0642,-0.03,-0.04,0.0047,0.0108,0.0174,0.0526,0.0528,0.0639,0.0639,0.0639,0.0552,0,0,0,0,0]}]]